Starlink 3640

operational
NORAD ID: 51988 Int'l Des: 2022-025 Owner: SPXS Country: US Constellation: starlink
LEOCIRCULAR

About Starlink 3640

Description loading...

Live Position

Loading 3D Globe...

Upcoming Passes

Altitude History

Altitude vs Time

uPlot chart will show altitude changes over time

Two-Line Element Set

1 51988U 22025AJ 25308.83375527 -.00001571 00000-0 -80611-4 0 9996
2 51988 53.2171 239.6201 0001549 94.3684 265.7485 15.08837405202213
Epoch: Nov 4, 2025 • Age: 12 hours

Current Status

Altitude 540.1 km
Velocity 7.60 km/s
Sub-Earth Point 25.13°N, 124.67°W
Launch Date Mar 9, 2022
Age 3.6 years
Type internet

Technical Details

Classification Payload
Mass 297.00 kg
Dry Mass 275.00 kg
Total Mass 297.00 kg
Length 0.20 m
Diameter 2.80 m
Span 9.00 m
Shape Box + pan
Manufacturer SPXS
Bus Type Starlink
Phase Status In Orbit
Owner/State SPXS/US

Large Constellations

Loading constellations...